HST,Max TemperatureF,Mean TemperatureF,Min TemperatureF,Max Dew PointF,MeanDew PointF,Min DewpointF,Max Humidity, Mean Humidity, Min Humidity, Max Sea Level PressureIn, Mean Sea Level PressureIn, Min Sea Level PressureIn, Max VisibilityMiles, Mean VisibilityMiles, Min VisibilityMiles, Max Wind SpeedMPH, Mean Wind SpeedMPH, Max Gust SpeedMPH,PrecipitationIn, CloudCover, Events, WindDirDegrees
2011-12-1,68,55,42,50,28,10,59,30,13,30.46,30.28,30.23,12,8,7,13,6,17,0.00,1,,236
2011-12-2,68,56,44,52,43,32,71,52,32,30.37,30.34,30.29,7,7,7,12,6,22,0.00,6,,100
2011-12-3,,,,,,,,,,,,,,,,,,,,,,
2011-12-4,,,,,,,,,,,,,,,,,,,,,,
2011-12-5,64,53,42,48,44,25,67,56,49,30.32,30.26,30.18,12,8,7,9,6,18,0.00,5,,114
2011-12-6,64,52,41,46,40,28,63,54,46,30.52,30.27,30.17,7,7,7,14,6,23,0.00,4,,109
2011-12-7,60,50,39,50,44,30,88,67,59,30.27,30.23,30.20,12,8,7,13,7,18,0.00,4,Rain,147
2011-12-8,60,50,41,52,44,30,82,69,51,30.38,30.30,30.24,12,8,7,15,8,23,0.00,3,Rain,112
2011-12-9,57,49,41,46,44,36,81,72,67,30.36,30.28,30.21,7,7,7,15,8,21,0.00,6,,83
2011-12-10,,,,,,,,,,,,,,,,,,,,,,
2011-12-11,,,,,,,,,,,,,,,,,,,,,,
2011-12-12,62,56,51,52,49,39,94,74,42,30.34,30.30,30.26,7,7,7,12,6,16,0.00,6,Rain,93
2011-12-13,60,55,50,52,47,43,88,73,52,30.34,30.31,30.26,7,6,1,10,5,15,0.00,6,,235
2011-12-14,62,55,48,52,49,45,87,75,67,30.36,30.33,30.30,7,7,7,10,4,17,0.00,5,,237
2011-12-15,62,58,53,52,49,46,77,70,63,30.37,30.34,30.30,7,7,7,16,11,23,0.00,3,,121
2011-12-16,64,53,42,50,45,37,81,64,49,30.54,30.38,30.29,7,7,7,8,5,14,0.00,3,,195
2011-12-17,,,,,,,,,,,,,,,,,,,,,,
2011-12-18,,,,,,,,,,,,,,,,,,,,,,
2011-12-19,60,56,51,52,48,43,82,73,59,30.27,30.18,30.14,7,7,7,20,8,37,0.00,6,Rain,0
2011-12-20,59,56,53,50,49,46,82,75,72,30.25,30.21,30.15,7,7,7,17,10,28,0.00,6,,116
2011-12-21,60,54,48,50,47,43,82,70,55,30.25,30.19,30.09,12,8,7,26,14,41,0.00,4,,83
2011-12-22,62,55,48,50,49,45,87,72,63,30.29,30.23,30.16,7,7,7,17,7,28,0.00,3,,81
2011-12-23,64,52,44,50,42,28,68,57,45,30.39,30.32,30.24,7,7,7,20,8,28,0.00,2,,104
2011-12-24,,,,,,,,,,,,,,,,,,,,,,
2011-12-25,,,,,,,,,,,,,,,,,,,,,,
2011-12-26,,,,,,,,,,,,,,,,,,,,,,
2011-12-27,66,55,44,41,32,21,46,37,22,30.35,30.32,30.26,7,7,6,29,12,43,0.00,1,,197
2011-12-28,68,60,53,45,30,19,52,30,17,30.38,30.36,30.32,7,7,7,25,15,34,0.00,1,,97
2011-12-29,68,52,41,43,38,25,62,51,30,30.65,30.38,30.28,7,7,7,15,10,22,0.00,1,,95
2011-12-30,64,50,37,48,35,25,75,46,25,30.35,30.32,30.28,7,7,7,15,9,23,0.00,1,,99
2011-12-31,,,,,,,,,,,,,,,,,,,,,,